Location: Dappach
(48.9767°N, 9.6998°E)
Time: 23:06:02
(UTC+00:00)

Cosmos 1242 Rocket - Pass Details

Date: 23 May 2024
Orbit: 322 x 337 km, 81.1° (Epoch: 14 June)

Event Time Altitude Azimuth Distance (km) Brightness Sun altitude
Exits shadow 02:45:53 - 257° (WSW) 1,645 4.7 -6.4°
Reaches altitude 10° 02:47:28 10° 283° (WNW) 1,358 4.5 -6.2°
Maximum altitude 02:48:08 11° 296° (WNW) 1,330 4.6 -6.2°
Drops below altitude 10° 02:48:48 10° 309° (NW) 1,363 4.8 -6.1°
Sets 02:52:13 0° 352° (N) 2,224 6.4 -5.7°
